Location: Domont
(49.0278°N, 2.3264°E)
Time: 19:56:56
(UTC+00:00)

AO-109 - Visible Passes

Search period start: 27 June 2022 00:00
Search period end: 07 July 2022 00:00
Orbit: 477 x 502 km, 60.7° (Epoch: 27 June)

Date Brightness Start Highest point End Pass type
(mag) Time Alt. Az. Time Alt. Az. Time Alt. Az.
04 Jul ? 03:00:05 10° SSW 03:03:37 43° SE 03:07:12 10° ENE visible
05 Jul ? 02:36:03 12° SSW 02:39:10 38° SE 02:42:41 10° ENE visible
06 Jul ? 02:12:19 16° S 02:14:43 34° SE 02:18:09 10° ENE visible
